Regional Weather Roundup
Issued by NWS

Home | Current Version | Previous Version | Text Only | Print | Product List | Glossary On
Versions: 1 2 3 4 5 6 7 8 9 10 11 12 13 14 15 16 17 18 19 20 21 22 23 24 25 26 27 28 29 30 31 32 33 34 35 36 37 38 39 40 41 42 43 44 45 46 47 48 49 50
000
ASUS45 KABQ 272310
RWRNM
WEATHER ROUNDUP FOR NEW MEXICO
NATIONAL WEATHER SERVICE ALBUQUERQUE NM
400 PM MST FRI FEB 27 2015

NOTE: "FAIR" MEANS FEW OR NO CLOUDS BELOW 12,000 FEET AGL WITH NO
       SIGNIFICANT WEATHER OR OBSTRUCTIONS TO VISION.

      THIS PRODUCT IS RELEASED AS TWO VERSIONS.  ONE VERSION NEAR
      THE TOP OF THE HOUR CONTAINING PRELIMINARY DATA FROM ALBUQUERQUE
      AND OTHER STATIONS.  A FINAL VERSION WITH ADDITIONAL DATA IS
      ISSUED ABOUT 10 MINUTES AFTER THE HOUR.

NMZ501-503-504-510>518-280000-
NORTHWEST PLATEAU/NORTHCENTRAL MOUNTAINS

CITY           SKY/WX    TMP DP  RH WIND       PRES   REMARKS
FARMINGTON     LGT SNOW  32  30  92 E9        29.77S FOG     WCI  24
LOS ALAMOS     LGT SNOW  18  15  89 S14       29.83S WCI   4
SANTA FE       LGT SNOW  20  14  77 S14       29.87F WCI   7
TAOS           CLOUDY    21  16  79 NW3       29.82F VSB 1
ANGEL FIRE     LGT SNOW  25  20  82 W7        29.77F WCI  17

$$
NMZ402-403-502-505>509-280000-
WESTCENTRAL MOUNTAINS/SOUTHWEST MOUNTAINS

CITY           SKY/WX    TMP DP  RH WIND       PRES   REMARKS
GALLUP         CLOUDY    35  32  88 S3        29.76F
GRANTS         LGT SNOW  25  24  93 SE17      29.82S VSB 3/4 WCI  12
SILVER CITY    SUNNY     50  25  37 SE14      29.83F

$$
NMZ407-409-411-412-280000-
SOUTHERN DESERTS

CITY           SKY/WX    TMP DP  RH WIND       PRES   REMARKS
LORDSBURG      FAIR      57  27  30 SE16G25   29.76F
DEMING         SUNNY     55  26  32 SE9       29.81F
LAS CRUCES     SUNNY     48  25  40 SE17      29.86F
HOLLOMAN AFB   MOSUNNY   43  23  46 VRB5G17   29.90F
ALAMOGORDO     MOSUNNY   41  25  52 SW9       29.92F
T OR C         MOSUNNY   49  27  42 S7G17     29.81F

$$
NMZ519>523-280000-
CENTRAL VALLEYS/CENTRAL HIGHLANDS

CITY           SKY/WX    TMP DP  RH WIND       PRES   REMARKS
ALBUQUERQUE    LGT SNOW  26  23  88 N9        29.89F FOG     WCI  17
DOUBLE EAGLE   SNOW      21  19  93 N7        29.88S VSB 1/4 WCI  13
MORIARTY ARPT  LGT SNOW  18  13  80 SE10      29.92F WCI   6
CLINES CORNERS LGT SNOW  13   9  84 SE10      29.85F FOG     WCI   0
BELEN          CLOUDY    31  25  78 SE9       29.88F WCI  23
SOCORRO          N/A     37  30  77 SE12      29.87F WCI  29

$$
NMZ524>526-539-540-280000-
SOUTHCENTRAL MOUNTAINS

CITY           SKY/WX    TMP DP  RH WIND       PRES   REMARKS
RUIDOSO        FOG       18  16  93 SE9       29.92S VSB<1/4 WCI   6

$$
NMZ527>531-280000-
NORTHEAST HIGHLANDS/NORTHEAST PLAINS

CITY           SKY/WX    TMP DP  RH WIND       PRES   REMARKS
LAS VEGAS      LGT SNOW  10   7  87 S16       29.87S VSB 3/4 WCI  -7
RATON          CLOUDY    13   9  84 S14       29.90S FOG     WCI  -2
CLAYTON        LGT SNOW  13   8  81 S20       30.01F WCI  -5

$$
NMZ532>537-280000-
EASTCENTRAL PLAINS

CITY           SKY/WX    TMP DP  RH WIND       PRES   REMARKS
TUCUMCARI      CLOUDY    17  10  74 S12       30.10S WCI   4
CANNON AFB     FLURRIES  14   9  79 SE13      30.11S WCI   0
CLOVIS AIRPORT CLOUDY    12   7  79 SE13      30.12F WCI  -3

$$
NMZ028-029-538-280000-
SOUTHEAST PLAINS

CITY           SKY/WX    TMP DP  RH WIND       PRES   REMARKS
ROSWELL        CLOUDY    24  18  77 SE9       30.11F WCI  14
ARTESIA        CLOUDY    25  21  86 SE13      30.12F WCI  13
CARLSBAD         N/A     26  18  71 SE9       30.13F WCI  17
HOBBS          FLURRIES  19  18  93 E13       30.14F WCI   7


$$


USA.gov is the U.S. government's official web portal to all federal, state and local government web resources and services.